Showing default

JILIN-01 KUANFU 01C, 52443

Orbit data source: Space-Track

JILIN-01 KUANFU 01C, 52443 is a payload satellite owned by Changguang WJ (CN) in SSO that was launched on Thu, 05 May 2022 UTC via a CHANG ZHENG 2D launch vehicle from the Taiyaun Space Center, China (TSC). Payload-class satellites include a variety of spacecraft equipped with specific instruments for various scientific and technological missions. These include communications satellites like Starlink; space stations such as the ISS; scientific satellites like the Hubble; Earth observation satellites from companies like Planet Labs, Umbra, and HawkEye 360; GPS; miniature CubeSats for education and research; and military/defense satellites.

Loading next visibility...
Identifier
52443, 2022-048A
Orbit
SSO
Last TLE update
7 hours ago
Origin
Manufacturer
HARB/CGSTL
Mission
Operational Commercial Imaging
Bus & Motor
JL-1, Unknown motor
Mass
1,250 kg wet, 1,250 kg dry
Launch date (UTC)
2022-05-05 (3 years ago)
Launch vehicle
CHANG ZHENG 2D
Launch site
Taiyaun Space Center, China (TSC)
Object type
Payload
Rocket body
Debris
Shape & HBR
Box + 2 Pan, 1.5 m
Radar Cross Section
2.000 m², Large (>1 m²)

Expand to show TLE details & history

TLE from 7 hours ago
0 JILIN-01 KUANFU 01C
1 52443U 22048A   25186.19871706  .00002700  00000-0  16642-3 0  9996
2 52443  97.5594 263.7735 0014282  95.7103 264.5755 15.10734909174830
Epoch: 2025-07-05T04:46Z
TLE epoch observation values (Epoch: 2025-07-05T04:46:09.153Z)
Latitude
-0.00011°
Longitude
-91.20482°
Altitude
537.978 km
Speed
7.593 km/s
True Right ascension
17h 35m 05s
True Declination
0° 00' 00"
Sunlit
Object was in full shadow at epoch
Visualization orbit readout
Latitude
17.30896°
Longitude
91.44349°
Altitude
532.674 km
Speed
7.6 km/s
Apparent Right ascension
08h 11m 48s
Apparent Declination
-13° 50' 08"
Sunlit
Object is in daylight
Visualization observer readout
Local Sidereal Time
23:45:03
Azimuth
76.369° E
Elevation
-36.754°
Doppler factor
1
Orbital elements
Apogee altitude
540.81 km
Perigee altitude
521.075 km
Semi-major axis
6,909.079 km
Eccentricity
0.00143
Inclination
97.5594°
RAAN
263.7735°
Arg. of periapsis
95.7103°
True anomaly
Unknown
Mean anomaly
264.5755°
Eccentric anomaly
Unknown
Mean motion
3.77931 °/min
Orbital period
95.26 mins
BSTAR
0.00016642
Loading maneuver chart data...
Loading SW <> Apogee altitude chart data...
Loading historical data...
Loading historical data...
Loading historical data...
Loading historical data...
Loading historical data...
Loading historical data...
Loading historical data...

JILIN-01 KUANFU 01C Visibility forecast

Observer location: undefined°, undefined°

Span
Click to sort rows by Start time (UTC) header in descending order
Start Az.
Max El. time (UTC)
Max El. Az.
Max El.
End time (UTC)
End Az.
7 mins2025-07-05 18:02:36.432Z12.845° NNE2025-07-05 18:05:36.432Z19.314° NNE42.655°2025-07-05 18:09:36.432Z192.115° SSW
5 mins2025-07-06 04:45:36.432Z130.571° SE2025-07-06 04:47:36.432Z82.168° E31.22°2025-07-06 04:50:36.432Z9.669° NNE
|